Time,TemperatureF,DewpointF,PressureIn,WindDirection,WindDirectionDegrees,WindSpeedMPH,WindSpeedGustMPH,Humidity,HourlyPrecipIn,Conditions,Clouds,dailyrainin,SoftwareType,DateUTC
2013-05-16 07:19:00,62.7,52.8,29.87,North,5,0.0,0.0,70,0.00,,,0.00,Wunderground v.1.15,2013-05-16 12:19:00,
2013-05-16 07:20:00,62.8,52.9,29.87,North,5,0.0,2.0,70,0.00,,,0.00,Wunderground v.1.15,2013-05-16 12:20:00,
2013-05-16 07:21:00,63.0,53.8,29.87,North,5,0.0,2.0,72,0.00,,,0.00,Wunderground v.1.15,2013-05-16 12:21:00,
2013-05-16 07:22:00,63.1,53.2,29.87,North,5,0.0,2.0,70,0.00,,,0.00,Wunderground v.1.15,2013-05-16 12:22:00,
2013-05-16 07:27:00,63.6,53.2,29.87,NNW,340,1.0,2.0,69,0.00,,,0.00,Wunderground v.1.15,2013-05-16 12:27:00,
2013-05-16 07:30:00,63.9,53.5,29.87,NNW,340,1.0,1.0,69,0.00,,,0.00,Wunderground v.1.15,2013-05-16 12:30:00,
2013-05-16 07:35:00,64.3,53.1,29.88,NNW,340,1.0,1.0,67,0.00,,,0.00,Wunderground v.1.15,2013-05-16 12:35:00,
2013-05-16 07:41:00,65.2,53.6,29.88,NNW,340,0.0,0.0,66,0.00,,,0.00,Wunderground v.1.15,2013-05-16 12:41:00,
2013-05-16 07:47:00,66.0,53.5,29.88,NNE,22,0.0,1.0,64,0.00,,,0.00,Wunderground v.1.15,2013-05-16 12:47:00,
2013-05-16 07:53:00,66.9,53.0,29.89,North,355,1.0,3.0,61,0.00,,,0.00,Wunderground v.1.15,2013-05-16 12:53:00,
2013-05-16 07:58:00,67.6,52.8,29.89,NE,36,2.0,6.0,59,0.00,,,0.00,Wunderground v.1.15,2013-05-16 12:58:00,
2013-05-16 08:04:00,68.3,52.0,29.89,NNE,22,4.0,6.0,56,0.00,,,0.00,Wunderground v.1.15,2013-05-16 13:04:00,
2013-05-16 08:09:00,68.7,51.4,29.89,NNE,26,4.0,6.0,54,0.00,,,0.00,Wunderground v.1.15,2013-05-16 13:09:00,
2013-05-16 08:15:00,69.2,51.8,29.89,NNE,19,3.0,5.0,54,0.00,,,0.00,Wunderground v.1.15,2013-05-16 13:15:00,
2013-05-16 08:20:00,69.8,51.9,29.89,NNE,17,3.0,5.0,53,0.00,,,0.00,Wunderground v.1.15,2013-05-16 13:20:00,
2013-05-16 08:26:00,69.9,51.5,29.90,NNE,13,4.0,6.0,52,0.00,,,0.00,Wunderground v.1.15,2013-05-16 13:26:00,
2013-05-16 08:31:00,70.1,51.7,29.90,NNE,15,4.0,4.0,52,0.00,,,0.00,Wunderground v.1.15,2013-05-16 13:31:00,
2013-05-16 08:37:00,70.5,51.0,29.90,NE,41,3.0,6.0,50,0.00,,,0.00,Wunderground v.1.15,2013-05-16 13:37:00,
2013-05-16 08:42:00,71.0,51.4,29.90,NNE,12,4.0,5.0,50,0.00,,,0.00,Wunderground v.1.15,2013-05-16 13:42:00,
2013-05-16 08:47:00,71.3,51.7,29.90,North,11,5.0,6.0,50,0.00,,,0.00,Wunderground v.1.15,2013-05-16 13:47:00,
2013-05-16 08:53:00,71.9,52.2,29.90,NNE,23,4.0,5.0,50,0.00,,,0.00,Wunderground v.1.15,2013-05-16 13:53:00,
2013-05-16 08:59:00,72.3,50.9,29.90,NNE,31,4.0,7.0,47,0.00,,,0.00,Wunderground v.1.15,2013-05-16 13:59:00,
2013-05-16 09:05:00,72.3,51.5,29.90,NE,42,5.0,5.0,48,0.00,,,0.00,Wunderground v.1.15,2013-05-16 14:05:00,
2013-05-16 09:11:00,72.9,51.5,29.90,NNE,17,5.0,7.0,47,0.00,,,0.00,Wunderground v.1.15,2013-05-16 14:11:00,
2013-05-16 09:16:00,73.5,49.6,29.90,NE,53,6.0,7.0,43,0.00,,,0.00,Wunderground v.1.15,2013-05-16 14:16:00,
2013-05-16 09:22:00,74.2,49.6,29.90,East,80,7.0,7.0,42,0.00,,,0.00,Wunderground v.1.15,2013-05-16 14:22:00,
2013-05-16 09:28:00,74.7,49.4,29.90,ENE,70,7.0,9.0,41,0.00,,,0.00,Wunderground v.1.15,2013-05-16 14:28:00,
2013-05-16 09:33:00,75.5,45.9,29.90,NE,54,7.0,10.0,35,0.00,,,0.00,Wunderground v.1.15,2013-05-16 14:33:00,
2013-05-16 09:39:00,75.7,45.3,29.91,East,93,8.0,10.0,34,0.00,,,0.00,Wunderground v.1.15,2013-05-16 14:39:00,
2013-05-16 09:45:00,76.0,45.6,29.90,ENE,61,6.0,8.0,34,0.00,,,0.00,Wunderground v.1.15,2013-05-16 14:45:00,
2013-05-16 09:50:00,76.5,44.4,29.90,ENE,76,6.0,8.0,32,0.00,,,0.00,Wunderground v.1.15,2013-05-16 14:50:00,
2013-05-16 09:56:00,76.6,46.1,29.90,NE,38,6.0,8.0,34,0.00,,,0.00,Wunderground v.1.15,2013-05-16 14:56:00,
2013-05-16 10:11:00,76.9,43.1,29.91,NE,48,5.0,5.0,30,0.00,,,0.00,Wunderground v.1.15,2013-05-16 15:11:00,
2013-05-16 10:17:00,77.0,44.0,29.90,East,83,4.0,7.0,31,0.00,,,0.00,Wunderground v.1.15,2013-05-16 15:17:00,
2013-05-16 10:22:00,77.2,43.4,29.90,ENE,61,5.0,8.0,30,0.00,,,0.00,Wunderground v.1.15,2013-05-16 15:22:00,
2013-05-16 10:28:00,77.3,43.4,29.90,NNE,15,4.0,8.0,30,0.00,,,0.00,Wunderground v.1.15,2013-05-16 15:28:00,
2013-05-16 10:33:00,77.6,43.7,29.89,NE,42,5.0,5.0,30,0.00,,,0.00,Wunderground v.1.15,2013-05-16 15:33:00,
2013-05-16 10:39:00,77.9,44.0,29.89,ENE,65,5.0,8.0,30,0.00,,,0.00,Wunderground v.1.15,2013-05-16 15:39:00,
2013-05-16 10:45:00,78.6,40.8,29.89,ESE,106,6.0,10.0,26,0.00,,,0.00,Wunderground v.1.15,2013-05-16 15:45:00,
2013-05-16 10:50:00,78.7,42.8,29.89,ESE,110,6.0,10.0,28,0.00,,,0.00,Wunderground v.1.15,2013-05-16 15:50:00,
2013-05-16 10:56:00,78.8,42.9,29.89,ENE,67,6.0,10.0,28,0.00,,,0.00,Wunderground v.1.15,2013-05-16 15:56:00,
2013-05-16 11:01:00,78.8,42.0,29.88,ESE,108,7.0,10.0,27,0.00,,,0.00,Wunderground v.1.15,2013-05-16 16:01:00,
2013-05-16 11:07:00,78.9,42.1,29.88,ESE,121,7.0,12.0,27,0.00,,,0.00,Wunderground v.1.15,2013-05-16 16:07:00,
2013-05-16 11:13:00,79.2,42.3,29.88,East,82,7.0,8.0,27,0.00,,,0.00,Wunderground v.1.15,2013-05-16 16:13:00,
2013-05-16 11:18:00,79.4,42.5,29.87,East,90,5.0,8.0,27,0.00,,,0.00,Wunderground v.1.15,2013-05-16 16:18:00,
2013-05-16 11:24:00,79.7,42.8,29.87,NE,55,6.0,13.0,27,0.00,,,0.00,Wunderground v.1.15,2013-05-16 16:24:00,
2013-05-16 11:30:00,80.0,43.0,29.87,NE,34,8.0,8.0,27,0.00,,,0.00,Wunderground v.1.15,2013-05-16 16:30:00,
2013-05-16 11:36:00,80.5,42.4,29.88,East,87,7.0,10.0,26,0.00,,,0.00,Wunderground v.1.15,2013-05-16 16:36:00,
2013-05-16 11:41:00,80.6,42.5,29.88,East,96,8.0,14.0,26,0.00,,,0.00,Wunderground v.1.15,2013-05-16 16:41:00,
2013-05-16 11:47:00,80.6,41.5,29.88,East,79,8.0,14.0,25,0.00,,,0.00,Wunderground v.1.15,2013-05-16 16:47:00,
2013-05-16 11:53:00,80.2,40.1,29.88,NNE,24,6.0,9.0,24,0.00,,,0.00,Wunderground v.1.15,2013-05-16 16:53:00,
2013-05-16 11:58:00,80.3,41.3,29.88,ENE,78,6.0,12.0,25,0.00,,,0.00,Wunderground v.1.15,2013-05-16 16:58:00,
2013-05-16 12:04:00,80.9,40.7,29.88,NE,49,7.0,8.0,24,0.00,,,0.00,Wunderground v.1.15,2013-05-16 17:04:00,
2013-05-16 12:09:00,80.7,40.5,29.88,ENE,76,6.0,8.0,24,0.00,,,0.00,Wunderground v.1.15,2013-05-16 17:09:00,
2013-05-16 12:14:00,80.6,41.5,29.88,NE,56,6.0,12.0,25,0.00,,,0.00,Wunderground v.1.15,2013-05-16 17:14:00,
2013-05-16 12:20:00,80.7,40.5,29.88,ENE,67,8.0,12.0,24,0.00,,,0.00,Wunderground v.1.15,2013-05-16 17:20:00,
2013-05-16 12:26:00,80.5,40.4,29.89,NE,51,8.0,13.0,24,0.00,,,0.00,Wunderground v.1.15,2013-05-16 17:26:00,
2013-05-16 12:31:00,80.1,41.1,29.88,East,84,6.0,7.0,25,0.00,,,0.00,Wunderground v.1.15,2013-05-16 17:31:00,
2013-05-16 12:36:00,80.4,40.3,29.88,ESE,120,5.0,12.0,24,0.00,,,0.00,Wunderground v.1.15,2013-05-16 17:36:00,
2013-05-16 12:42:00,80.9,40.7,29.88,East,92,7.0,8.0,24,0.00,,,0.00,Wunderground v.1.15,2013-05-16 17:42:00,
2013-05-16 12:47:00,81.1,40.9,29.88,East,94,8.0,13.0,24,0.00,,,0.00,Wunderground v.1.15,2013-05-16 17:47:00,
2013-05-16 12:53:00,81.4,42.2,29.87,ENE,67,7.0,8.0,25,0.00,,,0.00,Wunderground v.1.15,2013-05-16 17:53:00,
2013-05-16 12:59:00,81.1,43.0,29.87,NE,42,6.0,10.0,26,0.00,,,0.00,Wunderground v.1.15,2013-05-16 17:59:00,
2013-05-16 13:05:00,81.2,42.0,29.87,East,88,5.0,8.0,25,0.00,,,0.00,Wunderground v.1.15,2013-05-16 18:05:00,
2013-05-16 13:10:00,81.3,42.1,29.87,East,84,6.0,8.0,25,0.00,,,0.00,Wunderground v.1.15,2013-05-16 18:10:00,
2013-05-16 13:16:00,81.8,41.5,29.87,East,84,10.0,14.0,24,0.00,,,0.00,Wunderground v.1.15,2013-05-16 18:16:00,
2013-05-16 13:21:00,81.8,40.4,29.87,East,97,10.0,10.0,23,0.00,,,0.00,Wunderground v.1.15,2013-05-16 18:21:00,
2013-05-16 13:27:00,81.8,40.4,29.87,NE,55,7.0,10.0,23,0.00,,,0.00,Wunderground v.1.15,2013-05-16 18:27:00,
2013-05-16 13:33:00,82.3,40.8,29.86,East,92,4.0,7.0,23,0.00,,,0.00,Wunderground v.1.15,2013-05-16 18:33:00,
2013-05-16 13:38:00,82.5,42.1,29.86,SE,127,5.0,7.0,24,0.00,,,0.00,Wunderground v.1.15,2013-05-16 18:38:00,
2013-05-16 13:44:00,82.8,41.2,29.86,NNE,31,5.0,6.0,23,0.00,,,0.00,Wunderground v.1.15,2013-05-16 18:44:00,
2013-05-16 13:49:00,82.5,42.1,29.86,NNE,31,6.0,16.0,24,0.00,,,0.00,Wunderground v.1.15,2013-05-16 18:49:00,
2013-05-16 13:55:00,83.5,41.8,29.86,ESE,120,7.0,13.0,23,0.00,,,0.00,Wunderground v.1.15,2013-05-16 18:55:00,
2013-05-16 14:01:00,83.3,41.6,29.86,ESE,103,9.0,10.0,23,0.00,,,0.00,Wunderground v.1.15,2013-05-16 19:01:00,
2013-05-16 14:07:00,83.2,42.6,29.86,NE,55,8.0,12.0,24,0.00,,,0.00,Wunderground v.1.15,2013-05-16 19:07:00,
2013-05-16 14:13:00,83.6,41.9,29.86,ESE,105,7.0,12.0,23,0.00,,,0.00,Wunderground v.1.15,2013-05-16 19:13:00,
2013-05-16 14:19:00,83.4,41.7,29.85,SE,135,8.0,12.0,23,0.00,,,0.00,Wunderground v.1.15,2013-05-16 19:19:00,
2013-05-16 14:24:00,82.9,42.4,29.85,East,92,6.0,8.0,24,0.00,,,0.00,Wunderground v.1.15,2013-05-16 19:24:00,
2013-05-16 14:30:00,83.0,42.5,29.85,East,92,5.0,9.0,24,0.00,,,0.00,Wunderground v.1.15,2013-05-16 19:30:00,
2013-05-16 14:35:00,82.8,42.3,29.85,SE,142,6.0,9.0,24,0.00,,,0.00,Wunderground v.1.15,2013-05-16 19:35:00,
2013-05-16 14:41:00,82.7,43.3,29.85,ENE,62,4.0,10.0,25,0.00,,,0.00,Wunderground v.1.15,2013-05-16 19:41:00,
2013-05-16 14:46:00,83.2,42.6,29.85,NE,54,4.0,10.0,24,0.00,,,0.00,Wunderground v.1.15,2013-05-16 19:46:00,
2013-05-16 14:52:00,84.2,43.5,29.84,SE,133,7.0,9.0,24,0.00,,,0.00,Wunderground v.1.15,2013-05-16 19:52:00,
2013-05-16 14:58:00,84.1,43.4,29.84,East,80,9.0,13.0,24,0.00,,,0.00,Wunderground v.1.15,2013-05-16 19:58:00,
2013-05-16 15:03:00,83.9,43.2,29.84,ESE,105,9.0,10.0,24,0.00,,,0.00,Wunderground v.1.15,2013-05-16 20:03:00,
2013-05-16 15:09:00,83.8,43.2,29.84,East,98,6.0,10.0,24,0.00,,,0.00,Wunderground v.1.15,2013-05-16 20:09:00,
2013-05-16 15:14:00,83.9,42.1,29.84,ESE,115,5.0,9.0,23,0.00,,,0.00,Wunderground v.1.15,2013-05-16 20:14:00,
2013-05-16 15:20:00,83.6,40.7,29.84,SE,136,8.0,8.0,22,0.00,,,0.00,Wunderground v.1.15,2013-05-16 20:20:00,
2013-05-16 15:25:00,83.7,42.0,29.84,SE,136,8.0,10.0,23,0.00,,,0.00,Wunderground v.1.15,2013-05-16 20:25:00,
2013-05-16 15:31:00,83.8,42.0,29.83,ENE,61,7.0,7.0,23,0.00,,,0.00,Wunderground v.1.15,2013-05-16 20:31:00,
2013-05-16 15:37:00,84.2,42.4,29.83,SE,144,6.0,7.0,23,0.00,,,0.00,Wunderground v.1.15,2013-05-16 20:37:00,
2013-05-16 15:42:00,83.9,44.3,29.83,South,174,6.0,9.0,25,0.00,,,0.00,Wunderground v.1.15,2013-05-16 20:42:00,
2013-05-16 15:48:00,83.9,44.3,29.83,SSE,163,7.0,13.0,25,0.00,,,0.00,Wunderground v.1.15,2013-05-16 20:48:00,
2013-05-16 15:53:00,84.8,44.0,29.83,SSE,154,9.0,16.0,24,0.00,,,0.00,Wunderground v.1.15,2013-05-16 20:53:00,
2013-05-16 15:59:00,85.1,45.3,29.83,South,186,11.0,17.0,25,0.00,,,0.00,Wunderground v.1.15,2013-05-16 20:59:00,
2013-05-16 16:05:00,84.1,43.4,29.83,SSE,165,10.0,12.0,24,0.00,,,0.00,Wunderground v.1.15,2013-05-16 21:05:00,
2013-05-16 16:11:00,83.8,43.2,29.83,SSE,161,10.0,10.0,24,0.00,,,0.00,Wunderground v.1.15,2013-05-16 21:11:00,
2013-05-16 16:17:00,84.1,43.4,29.82,SSE,158,7.0,10.0,24,0.00,,,0.00,Wunderground v.1.15,2013-05-16 21:17:00,
2013-05-16 16:22:00,84.0,45.4,29.82,South,185,5.0,6.0,26,0.00,,,0.00,Wunderground v.1.15,2013-05-16 21:22:00,
2013-05-16 16:28:00,84.1,43.4,29.82,SE,129,4.0,7.0,24,0.00,,,0.00,Wunderground v.1.15,2013-05-16 21:28:00,
2013-05-16 16:33:00,84.7,42.8,29.82,SSE,157,5.0,7.0,23,0.00,,,0.00,Wunderground v.1.15,2013-05-16 21:33:00,
2013-05-16 16:39:00,84.6,41.6,29.82,South,175,5.0,7.0,22,0.00,,,0.00,Wunderground v.1.15,2013-05-16 21:39:00,
2013-05-16 16:45:00,84.6,41.6,29.82,WSW,240,4.0,7.0,22,0.00,,,0.00,Wunderground v.1.15,2013-05-16 21:45:00,
2013-05-16 16:50:00,84.5,41.5,29.82,South,186,4.0,4.0,22,0.00,,,0.00,Wunderground v.1.15,2013-05-16 21:50:00,
2013-05-16 16:56:00,84.6,42.7,29.82,SW,217,3.0,5.0,23,0.00,,,0.00,Wunderground v.1.15,2013-05-16 21:56:00,
2013-05-16 17:01:00,84.7,47.0,29.82,SW,220,2.0,2.0,27,0.00,,,0.00,Wunderground v.1.15,2013-05-16 22:01:00,
2013-05-16 17:07:00,84.3,41.3,29.82,SE,124,2.0,6.0,22,0.00,,,0.00,Wunderground v.1.15,2013-05-16 22:07:00,
2013-05-16 17:13:00,84.5,41.5,29.82,East,82,2.0,8.0,22,0.00,,,0.00,Wunderground v.1.15,2013-05-16 22:13:00,
2013-05-16 17:18:00,84.6,43.8,29.82,SW,217,3.0,8.0,24,0.00,,,0.00,Wunderground v.1.15,2013-05-16 22:18:00,
2013-05-16 17:24:00,84.5,42.6,29.81,ESE,111,4.0,9.0,23,0.00,,,0.00,Wunderground v.1.15,2013-05-16 22:24:00,
2013-05-16 17:30:00,84.4,42.5,29.81,SE,141,4.0,8.0,23,0.00,,,0.00,Wunderground v.1.15,2013-05-16 22:30:00,
2013-05-16 17:36:00,84.7,43.9,29.82,SSE,147,5.0,11.0,24,0.00,,,0.00,Wunderground v.1.15,2013-05-16 22:36:00,